COSMOS 2199

Satellite information

Favourite Embed

Satellite Type and Status

PAYLOADIN ORBIT

Key statistics

Satellite COSMOS 2199 at a glance.

Uptime

12164

Days in orbit

Revolutions

≈ 12.6

Per day

Orbit

LEO

Low Earth Orbit

Inclination

82.6

Latest

Satellite identification and parameters

Extended collection of information and parameters for COSMOS 2199.

Object identification

Identified? True

Debris? False

Object name: COSMOS 2199

International designator: 1992-042C

Object number (NORAD): 22036

Object ID (CCSDS): 22036

Country: COMMONWEALTH OF INDEPENDENT STATES (CIS)

Current information (Y/N): Y

RCS size: LARGE

Orbital parameters

Period: 114.191 minutes

Inclination: 82.5996 deg

SMA: 7796.771 km

Apoapsis: 1428.357 km

Periapsis: 1408.916 km

RAAN: 65.5472 deg

Eccentricy: 0.0012467

Argument of periapsis: 128.7897 deg

Mean anomaly: 346.9965 deg

Mean motion: 12.61044936 rev/day

Mean motion (dot): 0.00000043 rev/day2

B* drag term: 0.0001851 1/REarth

Two-line elements (TLE)

Creation date: Oct. 31, 2025, 11:06 p.m.

Reference frame: TEME

Reference center: EARTH

Epoch: Oct. 31, 2025, 8:23 p.m. UTC

TLE line 0: 0 COSMOS 2199

TLE line 1: 1 22036U 92042C 25304.84989317 .00000043 00000-0 18510-3 0 9998

TLE line 2: 2 22036 82.5996 65.5472 0012467 128.7897 346.9965 12.61044936532452

Live tracking on map

Real-time ground track for satellite COSMOS 2199.

In-orbit conjunctions

There are no conjunctions computed for COSMOS 2199, at the moment. Check back to stay up to date, as we update our databases every day.

Go to all conjunctions

Associated space launch

Second generation store-dump military communications satellite

COSMOS 2199 was lifted into orbit during the mission ‘Tsiklon-3 | Strela-3 79 to 82’, on board a Tsiklon-3 space rocket.

The launch took place on July 13, 1992, 5:41 p.m. from 32/1.

For more information about the launch, click the button.

Launch to space Tsiklon-3 | Strela-3 79 to 82
Tsiklon-3 | Strela-3 79 to 82

Agency: N/A

Status: Launch Successful

Launch date: July 13, 1992, 5:41 p.m. UTC

Rocket: Tsiklon-3

Launch pad: 32/1

Location: Plesetsk Cosmodrome, Russian Federation

...

Latest news about this satellite

There are no fresh news available about this satellite. Check back as we update our databases every day.


Newsletter sign-up

Weekly statistics, charts and insights to help you stay on top of the space industry.